| time (UTC) | temp F | wind direction | speed knots | gust knots | rain 1hr in | rain 24hr in | rain mn in | humidity % | barometer mb |
| 20260507140137 | 59 | 276 | 0.9 | 1.7 | 0.00 | 0.00 | 0.00 | 81 | 1013.2 |
| 20260507130134 | 53 | 323 | 0.0 | 0.0 | 0.00 | 0.00 | 0.00 | 99 | 1013.4 |
| 20260507120130 | 43 | 318 | 0.0 | 0.0 | 0.00 | 0.00 | 0.00 | 99 | 1012.7 |
| 20260507110126 | 43 | 313 | 0.0 | 0.0 | 0.00 | 0.00 | 0.00 | 99 | 1012.3 |
| 20260507100121 | 43 | 313 | 0.0 | 0.0 | 0.00 | 0.00 | 0.00 | 99 | 1011.6 |
| 20260507090119 | 44 | 313 | 0.0 | 0.0 | 0.00 | 0.00 | 0.00 | 99 | 1011.0 |
| 20260507080114 | 46 | 316 | 0.0 | 0.0 | 0.00 | 0.00 | 0.00 | 99 | 1010.6 |
| 20260507070114 | 48 | 322 | 0.0 | 0.0 | 0.00 | 0.00 | 0.00 | 99 | 1010.5 |
| 20260507060110 | 48 | 316 | 0.0 | 0.0 | 0.00 | 0.00 | 0.00 | 99 | 1010.6 |
| 20260507050108 | 50 | 310 | 0.0 | 0.0 | 0.00 | 0.00 | 0.00 | 99 | 1010.5 |
| 20260507040108 | 50 | 316 | 0.0 | 0.0 | 0.00 | 0.00 | 0.00 | 99 | 1010.3 |
| 20260507030107 | 51 | 341 | 0.9 | 0.9 | 0.00 | 0.43 | 0.43 | 99 | 1009.9 |
| 20260507010058 | 52 | 312 | 0.0 | 0.0 | 0.00 | 0.43 | 0.43 | 99 | 1009.3 |
| 20260507000057 | 54 | 14 | 0.0 | 0.9 | 0.00 | 0.43 | 0.43 | 97 | 1009.0 |
| 20260506230056 | 54 | 309 | 0.0 | 0.0 | 0.00 | 0.43 | 0.43 | 99 | 1008.4 |
| 20260506220057 | 55 | 320 | 0.0 | 0.9 | 0.00 | 0.43 | 0.43 | 99 | 1007.5 |
| 20260506210052 | 56 | 312 | 0.0 | 0.9 | 0.00 | 0.43 | 0.43 | 99 | 1006.9 |
| 20260506200050 | 58 | 313 | 0.0 | 0.0 | 0.00 | 0.43 | 0.43 | 99 | 1007.0 |
| 20260506190047 | 59 | 310 | 0.9 | 1.7 | 0.00 | 0.43 | 0.43 | 99 | 1006.4 |
| 20260506180046 | 59 | 315 | 0.0 | 0.0 | 0.05 | 0.43 | 0.43 | 99 | 1006.0 |
| 20260506170041 | 58 | 316 | 0.0 | 0.0 | 0.00 | 0.32 | 0.32 | 99 | 1005.9 |
| 20260506160039 | 57 | 314 | 0.0 | 0.0 | 0.05 | 0.30 | 0.30 | 99 | 1005.5 |
| 20260506150040 | 55 | 316 | 0.0 | 0.0 | 0.24 | 0.23 | 0.23 | 99 | 1004.9 |